This is the latest recevied weather packets stored in our database for station/object 9W2SSS-1. If no packets are shown the sender has not sent any weather packets the latest 10 day(s).
| Time | Temp. | Humidity | Pressure | Rain* | Wind** | Luminosity | Snow |
|---|---|---|---|---|---|---|---|
| 1777317785 | 27.78° C | 66% | 1007.1 hPa | - | - | - | - |
| 1777316585 | 27.78° C | 67% | 1007.3 hPa | - | - | - | - |
| 1777315385 | 28.33° C | 66% | 1007.5 hPa | - | - | - | - |
| 1777314185 | 28.89° C | 68% | 1007.5 hPa | - | - | - | - |
| 1777312985 | 28.89° C | 70% | 1007.8 hPa | - | - | - | - |
| 1777311785 | 29.44° C | 69% | 1008.1 hPa | - | - | - | - |
| 1777310585 | 29.44° C | 69% | 1008.5 hPa | - | - | - | - |
| 1777309385 | 29.44° C | 69% | 1008.9 hPa | - | - | - | - |
| 1777308185 | 29.44° C | 69% | 1009.1 hPa | - | - | - | - |
| 1777306985 | 29.44° C | 67% | 1009.4 hPa | - | - | - | - |
| 1777305785 | 28.89° C | 66% | 1009.3 hPa | - | - | - | - |
| 1777304585 | 28.89° C | 64% | 1009.3 hPa | - | - | - | - |
| 1777303385 | 29.44° C | 67% | 1009.2 hPa | - | - | - | - |
| 1777302185 | 29.44° C | 68% | 1009.3 hPa | - | - | - | - |
| 1777300985 | 30° C | 69% | 1009.3 hPa | - | - | - | - |
| 1777299784 | 30° C | 67% | 1009.4 hPa | - | - | - | - |
| 1777298584 | 30° C | 67% | 1009.2 hPa | - | - | - | - |
| 1777297384 | 30.56° C | 67% | 1009.1 hPa | - | - | - | - |
| 1777296184 | 30.56° C | 67% | 1009.3 hPa | - | - | - | - |
| 1777294984 | 30.56° C | 66% | 1009.1 hPa | - | - | - | - |
| 1777293784 | 30.56° C | 67% | 1008.9 hPa | - | - | - | - |
| 1777292583 | 30.56° C | 67% | 1008.6 hPa | - | - | - | - |
| 1777291383 | 31.11° C | 64% | 1008.5 hPa | - | - | - | - |
| 1777290204 | 31.11° C | 64% | 1007.9 hPa | - | - | - | - |
| 1777290183 | 31.11° C | 64% | 1007.9 hPa | - | - | - | - |
* Rain since midnight (hover to see other rain measurements)
** Current wind speed in m/s (hover to see current wind gust speed)